Weather in Jalna

India     19°50′41″N   75°53′01″E
temp.,
°C
wind,
m/s
gust,
m/s
humid.,
%
clouds,
%
prec.,
mm/h
press.,
hPa
HPBL,
m
20 may, fri
fri2023:30+33wsw324451 0.3 1004426
02:30+31w5646100 0.1 1003573
05:30+30w4540100 0.2 1004372
08:30+33nnw4434100 0.0 10061024
11:30+37nnw342191 0.0 10052240
14:30+40n441792 0.0 10013646
17:30+39n4418100 0.0 10003291
20:30+33se674092 0.0 1003297
21 may, sat
sat2123:30+33nw673998 0.0 1004714
02:30+29w784661 0.0 1003463
05:30+27w71151100 0.0 1004510
08:30+30wnw89377 0.0 1006869
11:30+37wnw67225 0.0 10041647
14:30+40wnw77185 0.0 10003036
17:30+39w109195 0.0 9993211
20:30+34w1012290 0.0 1001937
22 may, sun
sun2223:30+29wnw913400 0.0 1003678
02:30+27w610530 0.0 1002709
05:30+25w510610 0.0 1003640
08:30+29w811420 0.0 1004871
11:30+36w89230 0.0 10021656
14:30+39wnw99150 0.0 9992781
17:30+37w910200 0.0 9982610
20:30+33wnw1012310 0.0 1001901
23 may, mon
mon2323:30+28w912490 0.0 1003833
02:30+27wsw611590 0.0 1002869
05:30+25w59670 0.0 1003926
08:30+29w68480 0.0 10041087
11:30+35w67280 0.0 10031758
14:30+39w77180 0.0 9992869
17:30+39w88180 0.0 9983671
20:30+34w1012290 0.0 1000783
24 may, tue
tue2423:30+29w813480 0.0 1003694
02:30+27wnw712560 0.0 1003675
05:30+26w510620 0.0 1004699
08:30+30wnw78480 0.0 1006997
11:30+36wnw77270 0.0 10051783
14:30+39wnw77180 0.0 10022824
17:30+39wnw87180 0.0 10003526
20:30+35wnw912270 0.0 1003974